Location: Brissac
(47.3500°N, 0.4500°W)
Time: 15:31:32
(UTC+02:00)

ISS - Pass Details

Date: 19 May 2021
Orbit: 419 x 422 km, 51.6° (Epoch: 25 June)

Event Time Altitude Azimuth Distance (km) Brightness Sun altitude
Rises 00:19:22 0° 277° (W) 2,370 0.5 -19.3°
Reaches altitude 10° 00:21:33 10° 285° (WNW) 1,507 -0.4 -19.5°
Maximum altitude 00:24:45 38° 356° (N) 657 -2.3 -19.7°
Drops below altitude 10° 00:27:57 10° 67° (ENE) 1,509 -0.9 -19.9°
Enters shadow 00:28:39 - 70° (ENE) 1,779 -0.6 -19.9°
